CW2352 Weather Reports


time (UTC)temp
C
wind
direction
speed
KPH
gust
KPH
rain 1hr
cm
rain 24hr
cm
rain mn
cm
humidity
%
barometer
mb
20260504081703 5 211 3.2 4.8 0.00 0.13 0.13 99 1013.5
20260504081203 5 195 1.6 3.2 0.00 0.13 0.13 99 1013.7
20260504080703 5 190 1.6 4.8 0.00 0.13 0.13 99 1013.7
20260504080204 6 206 3.2 4.8 0.00 0.13 0.13 99 1013.9
20260504070203 7 204 3.2 4.8 0.00 0.13 0.13 99 1013.9
20260504060204 7 190 3.2 4.8 0.00 0.13 0.13 99 1013.9
20260504050703 7 236 1.6 3.2 0.00 0.13 0.13 99 1014.4
20260504050202 7 83 1.6 3.2 0.00 0.13 0.13 99 1014.5
20260504045703 7 224 3.2 3.2 0.00 0.13 0.13 99 1014.5
20260504045203 7 73 3.2 4.8 0.00 0.13 0.13 99 1014.5
20260504044703 7 14 1.6 3.2 0.00 0.13 0.13 99 1014.9
20260504044202 7 222 1.6 3.2 0.00 0.13 0.13 99 1014.5
20260504043203 7 206 1.6 3.2 0.00 0.13 0.13 99 1014.5
20260504042203 7 225 0.0 3.2 0.00 0.13 0.13 99 1014.5
20260504041703 7 184 1.6 4.8 0.00 0.13 0.13 99 1014.5
20260504041203 7 187 4.8 8.0 0.00 0.13 0.13 99 1014.5
20260504040702 7 197 1.6 4.8 0.00 0.13 0.13 99 1014.7
20260504040202 7 189 3.2 9.7 0.03 0.13 0.13 99 1014.9
20260504035703 7 204 4.8 8.0 0.03 0.13 0.13 99 1014.5
20260504035203 7 316 3.2 3.2 0.03 0.13 0.13 98 1015.1
20260504034703 7 186 3.2 4.8 0.03 0.13 0.13 98 1014.9
20260504034203 7 199 1.6 3.2 0.03 0.13 0.13 97 1014.9
20260504033702 7 103 0.0 1.6 0.03 0.13 0.13 97 1014.9
20260504033203 7 185 1.6 3.2 0.03 0.13 0.13 97 1014.7
20260504032703 7 290 1.6 4.8 0.05 0.13 0.13 97 1014.7
20260504031703 7 175 4.8 4.8 0.08 0.13 0.13 96 1014.4
20260504031203 7 167 1.6 8.0 0.08 0.13 0.13 96 1014.7
20260504030703 7 177 3.2 4.8 0.08 0.13 0.13 95 1015.2
20260504030203 7 287 1.6 3.2 0.08 0.10 0.10 94 1015.6
20260504025703 7 289 1.6 3.2 0.08 0.10 0.10 93 1015.6
20260504025203 8 300 3.2 4.8 0.08 0.10 0.10 92 1015.6
20260504024203 8 289 3.2 12.9 0.08 0.10 0.10 89 1015.2
20260504023703 8 327 4.8 14.5 0.10 0.10 0.10 88 1015.4
20260504023203 8 335 8.0 25.7 0.10 0.10 0.10 86 1015.6
20260504022203 8 303 11.3 24.1 0.08 0.08 0.08 83 1015.9
20260504021203 8 348 4.8 14.5 0.05 0.05 0.05 81 1015.6
20260504020703 8 297 3.2 4.8 0.05 0.05 0.05 81 1015.6
20260504020203 8 211 3.2 4.8 0.03 0.03 0.03 85 1015.6
20260504015703 8 292 1.6 4.8 0.03 0.03 0.03 85 1015.4
20260504015203 8 276 3.2 8.0 0.03 0.03 0.03 81 1015.2
20260504014703 8 327 6.4 16.1 0.03 0.03 0.03 74 1015.2
20260504014203 8 316 3.2 9.7 0.03 0.03 0.03 79 1015.2
20260504013703 9 287 8.0 14.5 0.00 0.00 0.00 74 1015.2
20260504013203 9 254 1.6 3.2 0.00 0.00 0.00 75 1015.2
20260504012703 9 281 1.6 4.8 0.00 0.00 0.00 68 1015.2
20260504012203 9 284 3.2 4.8 0.00 0.00 0.00 66 1015.2
20260504011703 9 298 1.6 4.8 0.00 0.00 0.00 65 1014.9
20260504005703 10 116 1.6 3.2 0.00 0.00 0.00 65 1014.7
20260504005203 10 276 1.6 3.2 0.00 0.00 0.00 62 1014.5
20260504004703 10 186 3.2 3.2 0.00 0.00 0.00 62 1014.5
20260504004203 10 197 0.0 3.2 0.00 0.00 0.00 58 1014.5
20260504003703 10 224 1.6 3.2 0.00 0.00 0.00 58 1014.5
20260504002703 10 33 0.0 4.8 0.00 0.00 0.00 58 1014.5
20260504002203 10 273 1.6 8.0 0.00 0.00 0.00 58 1014.5
20260504001703 10 318 6.4 14.5 0.00 0.00 0.00 58 1014.5
20260504001203 10 338 4.8 20.9 0.00 0.00 0.00 59 1014.7
20260504000703 10 9 16.1 27.4 0.00 0.00 0.00 58 1014.7
20260503235703 11 264 4.8 16.1 0.00 0.00 0.00 54 1014.7
20260503235203 11 311 3.2 8.0 0.00 0.00 0.00 55 1014.5
20260503234704 11 343 0.0 4.8 0.00 0.00 0.00 53 1014.5
20260503234203 11 295 3.2 4.8 0.00 0.00 0.00 51 1014.2
20260503233203 11 334 4.8 9.7 0.00 0.00 0.00 50 1014.2
20260503232703 11 337 6.4 9.7 0.00 0.00 0.00 50 1013.9
20260503231704 11 4 8.0 20.9 0.00 0.00 0.00 49 1014.2
20260503231204 11 349 4.8 12.9 0.00 0.00 0.00 49 1014.1
20260503230704 11 343 6.4 14.5 0.00 0.00 0.00 49 1014.0
20260503230203 11 343 9.7 19.3 0.00 0.00 0.00 49 1013.9
20260503225704 11 336 9.7 19.3 0.00 0.00 0.00 47 1014.2
20260503225203 11 8 8.0 19.3 0.00 0.00 0.00 46 1014.2
20260503224703 11 322 8.0 16.1 0.00 0.00 0.00 45 1013.9
20260503224203 11 330 8.0 19.3 0.00 0.00 0.00 45 1013.9
20260503223703 11 294 9.7 19.3 0.00 0.00 0.00 44 1014.1
20260503223204 11 337 3.2 16.1 0.00 0.00 0.00 45 1014.1
20260503222703 11 320 8.0 19.3 0.00 0.00 0.00 44 1014.1
20260503222203 11 316 8.0 16.1 0.00 0.00 0.00 45 1014.2
20260503221703 11 322 4.8 16.1 0.00 0.00 0.00 44 1014.2
20260503221204 11 309 4.8 16.1 0.00 0.00 0.00 44 1014.0
20260503220704 11 301 4.8 16.1 0.00 0.00 0.00 43 1013.9
20260503215703 12 301 9.7 20.9 0.00 0.00 0.00 43 1013.9
20260503215204 12 328 9.7 20.9 0.00 0.00 0.00 41 1013.9
20260503214704 12 283 4.8 25.7 0.00 0.00 0.00 42 1013.9
20260503214204 12 3 6.4 24.1 0.00 0.00 0.00 42 1013.7
20260503213203 12 312 11.3 22.5 0.00 0.00 0.00 39 1013.9
20260503212704 12 322 9.7 19.3 0.00 0.00 0.00 40 1013.9
20260503210704 12 318 6.4 24.1 0.00 0.00 0.00 41 1013.9
20260503210203 12 329 11.3 25.7 0.00 0.00 0.00 40 1014.0
20260503205703 12 345 11.3 27.4 0.00 0.00 0.00 39 1013.9
20260503204203 12 306 9.7 24.1 0.00 0.00 0.00 38 1013.9
20260503203703 12 303 14.5 24.1 0.00 0.00 0.00 38 1013.9
20260503202701 12 335 11.3 25.7 0.00 0.00 0.00 37 1014.2
20260503202201 12 323 9.7 29.0 0.00 0.00 0.00 37 1013.9
20260503201701 12 227 6.4 29.0 0.00 0.00 0.00 36 1014.0
20260503201201 12 277 9.7 29.0 0.00 0.00 0.00 35 1014.0
20260503200202 13 311 8.0 14.5 0.00 0.00 0.00 36 1013.9
20260503195701 12 291 11.3 37.0 0.00 0.00 0.00 34 1014.2
20260503195201 12 271 12.9 24.1 0.00 0.00 0.00 34 1014.3
20260503194702 12 338 14.5 33.8 0.00 0.00 0.00 33 1014.1
20260503194202 12 8 4.8 25.7 0.00 0.00 0.00 34 1014.2
20260503193701 12 277 11.3 27.4 0.00 0.00 0.00 33 1014.2
20260503193201 13 273 9.7 29.0 0.00 0.00 0.00 35 1014.2
20260503192702 12 301 11.3 27.4 0.00 0.00 0.00 33 1014.2
20260503191702 12 326 9.7 27.4 0.00 0.00 0.00 35 1014.4
20260503191202 12 263 9.7 25.7 0.00 0.00 0.00 34 1014.5
20260503190702 11 264 16.1 32.2 0.00 0.00 0.00 34 1014.9
20260503185701 12 355 14.5 24.1 0.00 0.00 0.00 35 1014.9
20260503185202 12 318 9.7 22.5 0.00 0.00 0.00 34 1014.9
20260503184702 12 260 11.3 25.7 0.00 0.00 0.00 34 1015.1
20260503183702 11 326 16.1 33.8 0.00 0.00 0.00 35 1015.0
20260503183202 11 234 9.7 32.2 0.00 0.00 0.00 36 1015.0
20260503182702 12 342 14.5 29.0 0.00 0.00 0.00 34 1015.3
20260503182202 11 292 11.3 22.5 0.00 0.00 0.00 34 1015.4
20260503181702 11 342 16.1 33.8 0.00 0.00 0.00 35 1015.6
20260503180702 11 294 14.5 35.4 0.00 0.00 0.00 34 1015.6
20260503175702 11 328 9.7 19.3 0.00 0.00 0.00 38 1015.6
20260503175202 10 292 11.3 27.4 0.00 0.00 0.00 37 1015.9
20260503174702 11 261 9.7 25.7 0.00 0.00 0.00 37 1015.6
20260503173702 11 308 9.7 20.9 0.00 0.00 0.00 37 1015.9
20260503173202 10 5 9.7 20.9 0.00 0.00 0.00 39 1016.1
20260503172701 11 338 11.3 20.9 0.00 0.00 0.00 38 1016.2
20260503172202 10 313 11.3 41.8 0.00 0.00 0.00 37 1015.9
20260503171702 10 346 9.7 27.4 0.00 0.00 0.00 39 1016.0
20260503171202 11 315 11.3 27.4 0.00 0.00 0.00 39 1016.0
20260503170702 11 253 11.3 27.4 0.00 0.00 0.00 38 1016.2
20260503170203 10 272 9.7 24.1 0.00 0.00 0.00 37 1016.1
20260503160202 10 320 16.1 25.7 0.00 0.00 0.00 45 1016.9
20260503150702 8 251 9.7 20.9 0.00 0.00 0.00 49 1017.6
20260503150203 8 331 9.7 22.5 0.00 0.00 0.00 50 1017.4
20260503140202 7 316 9.7 27.4 0.00 0.00 0.00 50 1017.9
20260503130704 6 327 11.3 24.1 0.00 0.00 0.00 53 1018.1
20260503120202 5 321 8.0 19.3 0.00 0.00 0.00 68 1018.3
20260503110204 3 299 1.6 8.0 0.00 0.00 0.00 75 1018.3
20260503100204 2 315 1.6 4.8 0.00 0.00 0.00 92 1018.3